Aérodrome :
LOGIN :

S'inscrire | Disclaimer

   EN    FR    IT 

 










Légende :    VFR   VFR Marginal   IFR   IFR Intensif   IFR Très Intensif
Visi : 
Plafond : 
>= 8 km
>= 3000ft
5 à 8 km
1000 à 3000 ft
1500m à 5 km
500 à 1000 ft
800 à 1500m
200 à 500 ft
< 800m
< 200 ft
Symboles :   Orages  Brouillard  Fortes neiges  Fortes précipitations  Vent > 20 kt
SIGMETs :   Divers  Orages  Givrage  Turbulence  Onde Orograph.  Cendres Volcan.







- Altitude de l'aérodrome : 23 ft
- Code IATA : XFW


EDHI - Hamburg Finkenwerder

DERNIER METAR :
  • 180550Z AUTO 23015KT 9999 OVC059/// 06/02 Q1014

METARs EXPIRÉS :
  • 180520Z AUTO 23015KT 9999 OVC061/// 06/02 Q1014
  • 180450Z AUTO 23016KT 9999 FEW047/// BKN065/// BKN180/// 06/03 Q1015
  • 180420Z AUTO 23014KT 9999 BKN047/// 06/02 Q1015
  • 180350Z AUTO 23012KT 9999 BKN050/// BKN058/// 06/02 Q1016

Prévision TAF périmée.
Pas de NOTAMs connus pour ce terrain.



MET'MAP, la Météo Aéronautique d'un coup d'oeil ! - Copyright ORBIFLY Décembre 2007 - Disclaimer

ORBIFLY MET'MAP TEAM :

Programmation & Développement : Alexandra Zaïnal
Conception & Développement : Baudouin d'Aumeries
Co-Programmation & Développement : Marc-Olivier Méhu
Soutien technique & logistique : Manuel Goepfert

Contact : metmap@orbifly.com




SOURCES & CREDITS :

   NOAA